Henderson, KY

7:40 PM CST on November 20, 2019 (GMT -0600)
Henderson City-County

Weather History for KEHR - September, 2019

Change the Weather History Date:

Saturday, September 14, 2019

  Actual Average Record
Temperature  
Mean Temperature 72 °F -  
Max Temperature 84 °F 83 °F 102 °F (1939)
Min Temperature 60 °F 59 °F 39 °F (1964)
Cooling Degree Days 7    
Growing Degree Days 22 (Base 50)    
Moisture  
Dew Point 59 °F    
Average Humidity 68    
Maximum Humidity 93    
Minimum Humidity 41    
Precipitation  
Precipitation 0.00 in - - ()
Sea Level Pressure  
Sea Level Pressure 30.23 in    
Wind  
Wind Speed 5 mph (NE)    
Max Wind Speed 9 mph    
Max Gust Speed -    
Visibility 10 miles    
Events      
Averages and records for this station are not official NWS values.
T = Trace of Precipitation, MM = Missing Value Source: NWS Daily Summary

Daily Weather History Graph

Daily Weather History Graph

Search for Another Location

Airport or City:

Astronomy

Sep. 14, 2019 Rise Set
Actual Time 6:31 AM CDT 7:00 PM CDT
Civil Twilight 6:05 AM CDT 7:26 PM CDT
Nautical Twilight 5:34 AM CDT 7:57 PM CDT
Astronomical Twilight 5:02 AM CDT 8:29 PM CDT
Moon 7:41 PM CDT (9/14) 6:45 AM CDT (9/14)
Length of Visible Light 13h 21m
Length of Day
12h 28m
Full, 100% of the Moon is Illuminated
Sep 14
Full
Sep 21
Last Quarter
Sep 28
New
Oct 5
First Quarter
Oct 13
Full

Hourly Weather History & Observations

Time (CDT) Temp. Heat Index Dew Point Humidity Pressure Visibility Wind Dir Wind Speed Gust Speed Precip Events Conditions
12:56 AM 68.0 °F - 59.0 °F 73% 30.20 in 10.0 mi NNW 4.6 mph - N/A   Clear
1:56 AM 68.0 °F - 59.0 °F 73% 30.21 in 10.0 mi NNW 3.5 mph - N/A   Clear
2:56 AM 69.1 °F - 59.0 °F 70% 30.22 in 10.0 mi NNE 5.8 mph - N/A   Clear
3:56 AM 68.0 °F - 57.9 °F 70% 30.23 in 10.0 mi NNE 5.8 mph - N/A   Clear
4:56 AM 68.0 °F - 57.9 °F 70% 30.23 in 10.0 mi NNE 6.9 mph - N/A   Scattered Clouds
5:56 AM 66.9 °F - 57.9 °F 73% 30.26 in 10.0 mi NNE 5.8 mph - N/A   Partly Cloudy
6:56 AM 66.0 °F - 59.0 °F 78% 30.27 in 10.0 mi NNE 5.8 mph - N/A   Clear
7:56 AM 66.9 °F - 60.1 °F 79% 30.28 in 10.0 mi NE 6.9 mph - N/A   Clear
8:56 AM 69.1 °F - 60.1 °F 73% 30.29 in 10.0 mi NE 6.9 mph - N/A   Clear
9:56 AM 71.1 °F - 60.1 °F 68% 30.30 in 9.0 mi East 6.9 mph - N/A   Clear
10:56 AM 75.0 °F - 60.1 °F 60% 30.29 in 10.0 mi East 5.8 mph - N/A   Clear
11:56 AM 77.0 °F - 59.0 °F 54% 30.28 in 10.0 mi NE 8.1 mph - N/A   Clear
12:56 PM 79.0 °F - 57.9 °F 48% 30.26 in 10.0 mi ESE 4.6 mph - N/A   Clear
1:56 PM 81.0 °F 81.0 °F 57.0 °F 44% 30.23 in 10.0 mi NE 8.1 mph - N/A   Clear
3:56 PM 84.0 °F 83.5 °F 57.9 °F 41% 30.21 in 10.0 mi Variable 5.8 mph - N/A   Clear
4:56 PM 82.9 °F 82.4 °F 57.0 °F 41% 30.19 in 10.0 mi ENE 9.2 mph - N/A   Clear
5:56 PM 81.0 °F 81.1 °F 57.9 °F 45% 30.18 in 10.0 mi East 4.6 mph - N/A   Clear
6:56 PM 73.9 °F - 60.1 °F 62% 30.18 in 10.0 mi East 3.5 mph - N/A   Clear
7:56 PM 66.0 °F - 60.1 °F 81% 30.18 in 10.0 mi ESE 3.5 mph - N/A   Clear
8:56 PM 63.0 °F - 59.0 °F 87% 30.19 in 10.0 mi Calm Calm - N/A   Clear
9:56 PM 61.0 °F - 59.0 °F 93% 30.19 in 10.0 mi Calm Calm - N/A   Clear
10:56 PM 60.1 °F - 57.9 °F 93% 30.19 in 10.0 mi Calm Calm - N/A   Clear
11:56 PM 60.1 °F - 55.9 °F 86% 30.19 in 10.0 mi Calm Calm - N/A   Clear